Location: Ferques
(50.8300°N, 1.7599°E)
Time: 12:56:53
(UTC+00:00)

SPOT 3 Rocket - Pass Details

Date: 19 May 2025
Orbit: 775 x 790 km, 98.5° (Epoch: 11 June)

Event Time Altitude Azimuth Distance (km) Brightness Sun altitude
Exits shadow 21:43:35 13° 187° (S) 2,089 5.3 -14.0°
Maximum altitude 21:47:56 50° 260° (W) 987 4.2 -14.3°
Drops below altitude 10° 21:52:56 10° 336° (NNW) 2,336 7.4 -14.7°
Sets 21:55:20 0° 342° (NNW) 3,268 8.5 -14.9°
